Terminal Aerodrome Forecast
Issued by NWS Blacksburg, VA

Home | Current Version | Previous Version | Text Only | Print | Product List | Glossary On
Versions: 1 2 3 4 5 6 7 8 9 10 11 12 13 14 15 16 17 18 19 20 21 22 23 24
000
FTUS41 KRNK 032322
TAFDAN
TAF
KDAN 032322Z 0400/0424 23004KT P6SM FEW060
     FM040200 21004KT P6SM SKC
      TEMPO 0409/0412 5SM BR SCT007
     FM041400 24008KT P6SM BKN040
     FM041900 25007KT P6SM VCTS SCT050CB=

USA.gov is the U.S. government's official web portal to all federal, state and local government web resources and services.